Time,TemperatureF,DewpointF,PressureIn,WindDirection,WindDirectionDegrees,WindSpeedMPH,WindSpeedGustMPH,Humidity,HourlyPrecipIn,Conditions,Clouds,dailyrainin,SolarRadiationWatts/m^2,SoftwareType,DateUTC
2013-05-29 00:03:00,55.0,40.0,-100.00,SSW,204,5.0,11.0,56,0.00,,,0.00,0.000000,,2013-05-29 04:03:00,
2013-05-29 00:13:00,55.0,40.0,-100.00,SSW,204,5.0,11.0,56,0.00,,,0.00,0.000000,,2013-05-29 04:13:00,
2013-05-29 00:23:00,55.0,40.0,-100.00,SSW,204,5.0,11.0,56,0.00,,,0.00,0.000000,,2013-05-29 04:23:00,
2013-05-29 00:33:00,55.0,40.0,-100.00,SSW,204,5.0,11.0,56,0.00,,,0.00,0.000000,,2013-05-29 04:33:00,
2013-05-29 01:03:00,52.0,44.0,-100.00,SSW,201,3.0,10.0,75,0.00,,,0.00,0.000000,,2013-05-29 05:03:00,
2013-05-29 01:12:00,52.0,44.0,-100.00,SSW,201,3.0,10.0,75,0.00,,,0.00,0.000000,,2013-05-29 05:12:00,
2013-05-29 01:22:00,52.0,44.0,-100.00,SSW,201,3.0,10.0,75,0.00,,,0.00,0.000000,,2013-05-29 05:22:00,
2013-05-29 01:33:00,52.0,44.0,-100.00,SSW,201,3.0,10.0,75,0.00,,,0.00,0.000000,,2013-05-29 05:33:00,
2013-05-29 01:52:00,48.0,44.0,-100.00,South,189,0.0,5.0,87,0.00,,,0.00,0.000000,,2013-05-29 05:52:00,
2013-05-29 02:02:00,48.0,44.0,-100.00,South,189,0.0,5.0,87,0.00,,,0.00,0.000000,,2013-05-29 06:02:00,
2013-05-29 02:12:00,48.0,44.0,-100.00,South,189,0.0,5.0,87,0.00,,,0.00,0.000000,,2013-05-29 06:12:00,
2013-05-29 02:22:00,48.0,44.0,-100.00,South,189,0.0,5.0,87,0.00,,,0.00,0.000000,,2013-05-29 06:22:00,
2013-05-29 02:32:00,48.0,44.0,-100.00,South,189,0.0,5.0,87,0.00,,,0.00,0.000000,,2013-05-29 06:32:00,
2013-05-29 02:52:00,47.0,46.0,-100.00,ESE,112,3.0,4.0,95,0.00,,,0.00,0.000000,,2013-05-29 06:52:00,
2013-05-29 03:01:00,47.0,46.0,-100.00,ESE,112,3.0,4.0,95,0.00,,,0.00,0.000000,,2013-05-29 07:01:00,
2013-05-29 03:12:00,47.0,46.0,-100.00,ESE,112,3.0,4.0,95,0.00,,,0.00,0.000000,,2013-05-29 07:12:00,
2013-05-29 03:22:00,47.0,46.0,-100.00,ESE,112,3.0,4.0,95,0.00,,,0.00,0.000000,,2013-05-29 07:22:00,
2013-05-29 03:34:00,47.0,46.0,-100.00,ESE,112,3.0,4.0,95,0.00,,,0.00,0.000000,,2013-05-29 07:34:00,
2013-05-29 04:02:00,46.0,45.0,-100.00,North,352,1.0,4.0,97,0.00,,,0.00,0.000000,,2013-05-29 08:02:00,
2013-05-29 04:11:00,46.0,45.0,-100.00,North,352,1.0,4.0,97,0.00,,,0.00,0.000000,,2013-05-29 08:11:00,
2013-05-29 04:22:00,46.0,45.0,-100.00,North,352,1.0,4.0,97,0.00,,,0.00,0.000000,,2013-05-29 08:22:00,
2013-05-29 04:32:00,46.0,45.0,-100.00,North,352,1.0,4.0,97,0.00,,,0.00,0.000000,,2013-05-29 08:32:00,
2013-05-29 04:52:00,50.0,49.0,-100.00,South,175,2.0,8.0,98,0.00,,,0.00,0.000000,,2013-05-29 08:52:00,
2013-05-29 05:02:00,50.0,49.0,-100.00,South,175,2.0,8.0,98,0.00,,,0.00,0.000000,,2013-05-29 09:02:00,
2013-05-29 05:11:00,50.0,49.0,-100.00,South,175,2.0,8.0,98,0.00,,,0.00,0.000000,,2013-05-29 09:11:00,
2013-05-29 05:21:00,50.0,49.0,-100.00,South,175,2.0,8.0,98,0.00,,,0.00,0.000000,,2013-05-29 09:21:00,
2013-05-29 05:33:00,50.0,49.0,-100.00,South,175,2.0,8.0,98,0.00,,,0.00,0.000000,,2013-05-29 09:33:00,
2013-05-29 05:53:00,49.0,48.0,-100.00,NE,47,1.0,7.0,97,0.00,,,0.00,15.000000,,2013-05-29 09:53:00,
2013-05-29 06:03:00,49.0,48.0,-100.00,NE,47,1.0,7.0,97,0.00,,,0.00,15.000000,,2013-05-29 10:03:00,
2013-05-29 06:12:00,49.0,48.0,-100.00,NE,47,1.0,7.0,97,0.00,,,0.00,15.000000,,2013-05-29 10:12:00,
2013-05-29 06:22:00,49.0,48.0,-100.00,NE,47,1.0,7.0,97,0.00,,,0.00,15.000000,,2013-05-29 10:22:00,
2013-05-29 06:33:00,49.0,48.0,-100.00,NE,47,1.0,7.0,97,0.00,,,0.00,15.000000,,2013-05-29 10:33:00,
2013-05-29 06:53:00,52.0,51.0,-100.00,WNW,284,2.0,4.0,97,0.00,,,0.00,60.000000,,2013-05-29 10:53:00,
2013-05-29 07:02:00,52.0,51.0,-100.00,WNW,284,2.0,4.0,97,0.00,,,0.00,60.000000,,2013-05-29 11:02:00,
2013-05-29 07:12:00,52.0,51.0,-100.00,WNW,284,2.0,4.0,97,0.00,,,0.00,60.000000,,2013-05-29 11:12:00,
2013-05-29 07:22:00,52.0,51.0,-100.00,WNW,284,2.0,4.0,97,0.00,,,0.00,60.000000,,2013-05-29 11:22:00,
2013-05-29 07:32:00,52.0,51.0,-100.00,WNW,284,2.0,4.0,97,0.00,,,0.00,60.000000,,2013-05-29 11:32:00,
2013-05-29 08:01:00,55.0,53.0,-100.00,SSW,193,5.0,8.0,93,0.00,,,0.00,77.000000,,2013-05-29 12:01:00,
2013-05-29 08:11:00,55.0,53.0,-100.00,SSW,193,5.0,8.0,93,0.00,,,0.00,77.000000,,2013-05-29 12:11:00,
2013-05-29 08:22:00,55.0,53.0,-100.00,SSW,193,5.0,8.0,93,0.00,,,0.00,77.000000,,2013-05-29 12:22:00,
2013-05-29 08:32:00,55.0,53.0,-100.00,SSW,193,5.0,8.0,93,0.00,,,0.00,77.000000,,2013-05-29 12:32:00,
2013-05-29 08:52:00,56.0,54.0,-100.00,SSW,199,6.0,11.0,94,0.00,,,0.00,112.000000,,2013-05-29 12:52:00,
2013-05-29 09:02:00,56.0,54.0,-100.00,SSW,199,6.0,11.0,94,0.00,,,0.00,112.000000,,2013-05-29 13:02:00,
2013-05-29 09:11:00,56.0,54.0,-100.00,SSW,199,6.0,11.0,94,0.00,,,0.00,112.000000,,2013-05-29 13:11:00,
2013-05-29 09:22:00,56.0,54.0,-100.00,SSW,199,6.0,11.0,94,0.00,,,0.00,112.000000,,2013-05-29 13:22:00,
2013-05-29 09:32:00,56.0,54.0,-100.00,SSW,199,6.0,11.0,94,0.00,,,0.00,112.000000,,2013-05-29 13:32:00,
2013-05-29 09:53:00,56.0,55.0,-100.00,South,188,5.0,13.0,97,0.00,,,0.00,83.000000,,2013-05-29 13:53:00,
2013-05-29 10:02:00,56.0,55.0,-100.00,South,188,5.0,13.0,97,0.00,,,0.00,83.000000,,2013-05-29 14:02:00,
2013-05-29 10:11:00,56.0,55.0,-100.00,South,188,5.0,13.0,97,0.00,,,0.00,83.000000,,2013-05-29 14:11:00,
2013-05-29 10:22:00,56.0,55.0,-100.00,South,188,5.0,13.0,97,0.00,,,0.00,83.000000,,2013-05-29 14:22:00,
2013-05-29 10:32:00,56.0,55.0,-100.00,South,188,5.0,13.0,97,0.00,,,0.00,83.000000,,2013-05-29 14:32:00,
2013-05-29 10:52:00,56.0,55.0,-100.00,South,176,5.0,12.0,97,0.00,,,0.00,61.000000,,2013-05-29 14:52:00,
2013-05-29 11:01:00,56.0,55.0,-100.00,South,176,5.0,12.0,97,0.00,,,0.00,61.000000,,2013-05-29 15:01:00,
2013-05-29 11:11:00,56.0,55.0,-100.00,South,176,5.0,12.0,97,0.00,,,0.00,61.000000,,2013-05-29 15:11:00,
2013-05-29 11:21:00,56.0,55.0,-100.00,South,176,5.0,12.0,97,0.00,,,0.00,61.000000,,2013-05-29 15:21:00,
2013-05-29 11:33:00,56.0,55.0,-100.00,South,176,5.0,12.0,97,0.00,,,0.00,61.000000,,2013-05-29 15:33:00,
2013-05-29 11:53:00,55.0,54.0,-100.00,SSE,159,7.0,16.0,96,0.05,,,0.05,94.000000,,2013-05-29 15:53:00,
2013-05-29 12:03:00,55.0,54.0,-100.00,SSE,159,7.0,16.0,96,0.05,,,0.05,94.000000,,2013-05-29 16:03:00,
2013-05-29 12:13:00,55.0,54.0,-100.00,SSE,159,7.0,16.0,96,0.05,,,0.05,94.000000,,2013-05-29 16:13:00,
2013-05-29 12:22:00,55.0,54.0,-100.00,SSE,159,7.0,16.0,96,0.05,,,0.05,94.000000,,2013-05-29 16:22:00,
2013-05-29 12:33:00,55.0,54.0,-100.00,SSE,159,7.0,16.0,96,0.05,,,0.05,94.000000,,2013-05-29 16:33:00,
2013-05-29 12:52:00,54.0,53.0,-100.00,SSE,168,7.0,17.0,97,0.03,,,0.08,172.000000,,2013-05-29 16:52:00,
2013-05-29 13:02:00,54.0,53.0,-100.00,SSE,168,7.0,17.0,97,0.03,,,0.08,172.000000,,2013-05-29 17:02:00,
2013-05-29 13:12:00,54.0,53.0,-100.00,SSE,168,7.0,17.0,97,0.03,,,0.08,172.000000,,2013-05-29 17:12:00,
2013-05-29 13:22:00,54.0,53.0,-100.00,SSE,168,7.0,17.0,97,0.03,,,0.08,172.000000,,2013-05-29 17:22:00,
2013-05-29 13:32:00,54.0,53.0,-100.00,SSE,168,7.0,17.0,97,0.03,,,0.08,172.000000,,2013-05-29 17:32:00,
2013-05-29 14:01:00,54.0,53.0,-100.00,South,170,6.0,16.0,97,0.01,,,0.09,122.000000,,2013-05-29 18:01:00,
2013-05-29 14:13:00,54.0,53.0,-100.00,South,170,6.0,16.0,97,0.01,,,0.09,122.000000,,2013-05-29 18:13:00,
2013-05-29 14:22:00,54.0,53.0,-100.00,South,170,6.0,16.0,97,0.01,,,0.09,122.000000,,2013-05-29 18:22:00,
2013-05-29 14:32:00,54.0,53.0,-100.00,South,170,6.0,16.0,97,0.01,,,0.09,122.000000,,2013-05-29 18:32:00,
2013-05-29 14:52:00,53.0,52.0,-100.00,South,182,6.0,16.0,97,0.01,,,0.10,105.000000,,2013-05-29 18:52:00,
2013-05-29 15:02:00,53.0,52.0,-100.00,South,182,6.0,16.0,97,0.01,,,0.10,105.000000,,2013-05-29 19:02:00,
2013-05-29 15:12:00,53.0,52.0,-100.00,South,182,6.0,16.0,97,0.01,,,0.10,105.000000,,2013-05-29 19:12:00,
2013-05-29 15:22:00,53.0,52.0,-100.00,South,182,6.0,16.0,97,0.01,,,0.10,105.000000,,2013-05-29 19:22:00,
2013-05-29 15:32:00,53.0,52.0,-100.00,South,182,6.0,16.0,97,0.01,,,0.10,105.000000,,2013-05-29 19:32:00,
2013-05-29 16:03:00,53.0,52.0,-100.00,South,182,5.0,14.0,97,0.03,,,0.13,85.000000,,2013-05-29 20:03:00,
2013-05-29 16:12:00,53.0,52.0,-100.00,South,182,5.0,14.0,97,0.03,,,0.13,85.000000,,2013-05-29 20:12:00,
2013-05-29 16:23:00,53.0,52.0,-100.00,South,182,5.0,14.0,97,0.03,,,0.13,85.000000,,2013-05-29 20:23:00,
2013-05-29 16:33:00,53.0,52.0,-100.00,South,182,5.0,14.0,97,0.03,,,0.13,85.000000,,2013-05-29 20:33:00,
2013-05-29 17:02:00,53.0,52.0,-100.00,South,169,7.0,17.0,97,0.03,,,0.16,77.000000,,2013-05-29 21:02:00,
2013-05-29 17:12:00,53.0,52.0,-100.00,South,169,7.0,17.0,97,0.03,,,0.16,77.000000,,2013-05-29 21:12:00,
2013-05-29 17:22:00,53.0,52.0,-100.00,South,169,7.0,17.0,97,0.03,,,0.16,77.000000,,2013-05-29 21:22:00,
2013-05-29 17:33:00,53.0,52.0,-100.00,South,169,7.0,17.0,97,0.03,,,0.16,77.000000,,2013-05-29 21:33:00,
2013-05-29 17:53:00,52.0,51.0,-100.00,SSE,168,7.0,17.0,98,0.00,,,0.16,53.000000,,2013-05-29 21:53:00,
2013-05-29 18:03:00,52.0,51.0,-100.00,SSE,168,7.0,17.0,98,0.00,,,0.16,53.000000,,2013-05-29 22:03:00,
2013-05-29 18:13:00,52.0,51.0,-100.00,SSE,168,7.0,17.0,98,0.00,,,0.16,53.000000,,2013-05-29 22:13:00,
2013-05-29 18:23:00,52.0,51.0,-100.00,SSE,168,7.0,17.0,98,0.00,,,0.16,53.000000,,2013-05-29 22:23:00,
2013-05-29 18:33:00,52.0,51.0,-100.00,SSE,168,7.0,17.0,98,0.00,,,0.16,53.000000,,2013-05-29 22:33:00,
2013-05-29 18:53:00,53.0,52.0,-100.00,South,174,5.0,12.0,98,0.00,,,0.16,39.000000,,2013-05-29 22:53:00,
2013-05-29 19:02:00,53.0,52.0,-100.00,South,174,5.0,12.0,98,0.00,,,0.16,39.000000,,2013-05-29 23:02:00,
2013-05-29 19:12:00,53.0,52.0,-100.00,South,174,5.0,12.0,98,0.00,,,0.16,39.000000,,2013-05-29 23:12:00,
2013-05-29 19:22:00,53.0,52.0,-100.00,South,174,5.0,12.0,98,0.00,,,0.16,39.000000,,2013-05-29 23:22:00,
2013-05-29 19:33:00,53.0,52.0,-100.00,South,174,5.0,12.0,98,0.00,,,0.16,39.000000,,2013-05-29 23:33:00,
2013-05-29 20:02:00,52.0,52.0,-100.00,South,172,5.0,15.0,99,0.01,,,0.17,23.000000,,2013-05-30 00:02:00,
2013-05-29 20:12:00,52.0,52.0,-100.00,South,172,5.0,15.0,99,0.01,,,0.17,23.000000,,2013-05-30 00:12:00,
2013-05-29 20:22:00,52.0,52.0,-100.00,South,172,5.0,15.0,99,0.01,,,0.17,23.000000,,2013-05-30 00:22:00,
2013-05-29 20:32:00,52.0,52.0,-100.00,South,172,5.0,15.0,99,0.01,,,0.17,23.000000,,2013-05-30 00:32:00,
2013-05-29 20:52:00,52.0,52.0,-100.00,SSW,195,5.0,13.0,99,0.00,,,0.17,2.000000,,2013-05-30 00:52:00,
2013-05-29 21:02:00,52.0,52.0,-100.00,SSW,195,5.0,13.0,99,0.00,,,0.17,2.000000,,2013-05-30 01:02:00,
2013-05-29 21:11:00,52.0,52.0,-100.00,SSW,195,5.0,13.0,99,0.00,,,0.17,2.000000,,2013-05-30 01:11:00,
2013-05-29 21:22:00,52.0,52.0,-100.00,SSW,195,5.0,13.0,99,0.00,,,0.17,2.000000,,2013-05-30 01:22:00,
2013-05-29 21:32:00,52.0,52.0,-100.00,SSW,195,5.0,13.0,99,0.00,,,0.17,2.000000,,2013-05-30 01:32:00,
2013-05-29 21:52:00,52.0,52.0,-100.00,SSW,194,4.0,9.0,99,0.00,,,0.17,0.000000,,2013-05-30 01:52:00,
2013-05-29 22:02:00,52.0,52.0,-100.00,SSW,194,4.0,9.0,99,0.00,,,0.17,0.000000,,2013-05-30 02:02:00,
2013-05-29 22:11:00,52.0,52.0,-100.00,SSW,194,4.0,9.0,99,0.00,,,0.17,0.000000,,2013-05-30 02:11:00,
2013-05-29 22:22:00,52.0,52.0,-100.00,SSW,194,4.0,9.0,99,0.00,,,0.17,0.000000,,2013-05-30 02:22:00,
2013-05-29 22:32:00,52.0,52.0,-100.00,SSW,194,4.0,9.0,99,0.00,,,0.17,0.000000,,2013-05-30 02:32:00,
2013-05-29 23:02:00,52.0,52.0,-100.00,SW,219,3.0,8.0,99,0.00,,,0.17,0.000000,,2013-05-30 03:02:00,
2013-05-29 23:11:00,52.0,52.0,-100.00,SW,219,3.0,8.0,99,0.00,,,0.17,0.000000,,2013-05-30 03:11:00,
2013-05-29 23:21:00,52.0,52.0,-100.00,SW,219,3.0,8.0,99,0.00,,,0.17,0.000000,,2013-05-30 03:21:00,
2013-05-29 23:33:00,52.0,52.0,-100.00,SW,219,3.0,8.0,99,0.00,,,0.17,0.000000,,2013-05-30 03:33:00,
2013-05-29 23:53:00,52.0,52.0,-100.00,SW,229,2.0,5.0,99,0.00,,,0.17,0.000000,,2013-05-30 03:53:00,